CAPE
161 255 249 94 9 173 129 35 8 56 36 2 20 48 55 100 248 128 152 233 700 1334 1299 1354 1469 1498 1720 1814 1658 1493 1362 1349 1111 950 962 942 939 903 910 1044 989 983
26 285 870 111 147 232 23 2 29 43 46 9 28 45 28 113 90 162 188 214 502 613 691 842 1060 1290 1361 1470 1730 1630 1441 1265 1235 1301 1154 990 1196 970 1107 1006 995 951
0 1 0 12 14 1 0 0 35 25 39 48 36 24 46 225 350 205 122 401 405 221 244 341 588 814 952 1088 1181 1416 1523 1515 1349 1432 1396 1370 1035 1029 1032 844 769 983
6 8 11 1 0 0 0 14 20 35 31 35 26 24 196 382 340 103 79 322 81 122 116 212 353 528 734 969 1200 1274 1415 1540 1587 1585 1484 1332 1193 1185 1287 1193 956 936
39 24 0 0 0 14 4 27 58 51 49 36 7 72 404 80 51 78 72 80 78 104 155 236 356 483 649 819 1148 1328 1560 1739 1851 1889 1544 1396 1397 1204 1121 1134 1144 1070
15 8 2 0 41 36 38 34 32 20 36 43 15 214 84 27 34 48 72 57 111 158 227 283 295 395 414 442 682 1147 1360 1621 1796 1899 1689 1393 1348 1308 1182 1115 1069 971
5 0 0 0 30 11 124 11 0 292 135 15 127 32 8 25 40 52 60 106 127 242 332 252 207 214 245 325 419 670 840 1008 1245 1280 1377 1452 1459 1622 1757 1484 1420 1391
0 0 0 1 35 5 28 0 0 0 1 66 26 10 18 48 59 64 125 106 144 216 215 192 188 192 224 276 397 487 556 743 1000 1117 1203 1356 1423 1422 1400 1416 1512 1506
0 0 0 3 8 0 0 0 0 0 1 27 15 19 48 82 102 92 90 125 150 174 162 175 211 243 265 296 355 396 478 574 804 1046 1176 1252 1293 1378 1352 1327 1203 1406
0 0 0 0 0 0 0 0 0 0 0 10 34 33 47 59 93 90 123 123 126 162 174 202 236 266 286 315 347 400 465 538 649 805 1004 1171 1272 1344 1315 1337 1332 1421
0 0 0 0 0 0 0 0 0 0 30 172 67 49 37 32 78 113 95 98 127 174 210 219 247 272 297 322 349 399 447 532 625 721 824 961 1077 1203 1342 1338 1318 1411
0 0 0 0 0 0 0 0 0 0 0 7 84 41 22 19 31 32 123 142 124 151 194 229 240 252 281 323 366 432 492 568 654 762 867 947 1013 1030 1106 1164 1341 1418
0 0 0 0 0 0 0 0 0 0 0 0 15 44 19 12 16 13 48 83 127 170 210 237 252 271 314 343 380 412 465 549 658 743 803 902 1004 1103 1142 1184 1270 1384
0 0 0 0 0 0 0 0 0 0 0 0 11 0 0 1 3 10 14 77 124 190 254 333 354 294 274 307 368 425 552 686 745 862 963 1018 1090 1150 1223 1211 1250 1384
0 0 0 0 25 6 0 0 0 0 0 0 0 8 57 35 2 0 10 41 96 151 201 205 219 248 291 349 439 575 692 787 901 1013 1032 1105 1162 1176 1273 1327 1368 1340
0 0 6 0 0 0 0 0 0 0 0 0 0 0 0 0 0 2 32 58 85 134 152 172 200 236 431 633 680 756 697 796 904 933 986 990 1186 1175 1159 1220 1274 1285
0 0 0 0 0 0 0 0 0 0 0 0 0 0 0 2 17 0 0 24 58 101 121 136 184 207 385 530 561 600 709 804 782 785 805 765 831 889 892 1102 1203 1265
0 0 0 0 0 0 0 0 0 0 0 0 0 0 1 0 0 0 0 1 28 56 81 112 159 267 259 232 302 328 476 742 748 760 732 724 767 781 844 971 1049 1172
0 0 0 0 0 0 0 0 0 0 0 0 0 1 0 0 0 0 0 0 2 13 47 115 169 209 185 214 216 205 239 482 563 533 555 594 629 662 728 790 938 1080
0 0 0 0 0 0 0 0 0 0 0 0 0 0 0 0 0 0 0 0 4 41 91 89 120 190 146 96 46 34 61 211 384 385 396 432 486 562 609 692 802 887
0 0 0 0 0 0 0 0 0 0 0 0 0 0 0 0 0 0 0 33 12 8 23 72 101 138 54 31 0 0 2 164 344 371 387 424 472 533 552 620 716 808
0 0 0 0 0 0 0 0 0 0 0 0 8 0 0 0 0 0 0 0 0 2 22 63 89 24 0 8 50 0 4 278 315 296 312 360 406 497 547 642 698 794
0 0 0 0 0 0 0 0 0 0 0 0 0 0 0 0 0 0 0 0 15 50 47 48 37 35 0 27 128 175 154 220 276 307 330 355 407 477 528 584 658 750
0 0 0 0 0 0 0 0 0 0 0 0 0 0 0 0 0 0 0 11 23 16 11 42 85 115 50 2 21 94 60 213 276 262 275 313 385 442 494 524 612 813
0 0 0 0 0 0 0 0 0 0 0 0 0 0 0 0 0 0 0 0 0 0 22 97 88 60 12 0 0 0 69 170 190 230 218 236 304 342 461 483 546 766
0 0 0 0 0 0 0 0 0 0 0 0 0 0 0 0 0 0 0 0 0 0 0 1 0 2 39 0 0 0 0 109 267 218 174 179 166 226 342 465 545 654
Wind_Speed
9 9 10 nan nan 9 9 nan nan nan nan nan nan nan nan nan 9 10 10 10 11 12 13 13 14 13 13 13 17 19 17 19 18 16 13 14 16 16 13 11 12 14
nan 10 9 10 8 9 nan nan nan nan nan nan nan nan nan 11 nan 13 12 12 12 13 13 14 14 14 14 14 15 17 17 18 18 19 20 18 17 16 12 12 13 15
nan nan nan nan nan nan nan nan nan nan nan nan nan nan nan 14 13 13 15 15 15 15 15 16 16 16 17 16 16 16 15 15 16 20 20 19 19 19 15 14 16 15
nan nan nan nan nan nan nan nan nan nan nan nan nan nan 16 16 16 15 nan 16 nan 16 16 17 17 18 18 18 19 18 17 15 14 16 19 22 20 19 16 16 17 16
nan nan nan nan nan nan nan nan nan nan nan nan nan nan 17 nan nan nan nan nan nan 17 18 17 18 18 19 19 20 19 19 19 17 16 17 18 19 20 20 19 17 15
nan nan nan nan nan nan nan nan nan nan nan nan nan 20 nan nan nan nan nan nan 19 19 19 20 19 19 19 19 21 21 21 21 20 20 19 17 16 18 20 22 21 18
nan nan nan nan nan nan 22 nan nan 22 22 nan 22 nan nan nan nan nan nan 22 21 21 21 21 21 21 22 22 22 22 22 22 22 21 20 19 18 16 17 21 22 21
nan nan nan nan nan nan nan nan nan nan nan nan nan nan nan nan nan nan 24 23 24 24 24 24 23 24 24 25 24 24 23 24 23 22 21 21 22 19 17 18 19 20
nan nan nan nan nan nan nan nan nan nan nan nan nan nan nan nan 25 nan nan 25 26 26 26 26 26 26 26 26 26 26 25 25 24 24 22 21 21 21 19 18 17 19
nan nan nan nan nan nan nan nan nan nan nan nan nan nan nan nan nan nan 27 27 27 27 27 27 27 27 27 28 28 28 28 27 27 26 25 23 21 20 20 21 19 18
nan nan nan nan nan nan nan nan nan nan nan 30 nan nan nan nan nan 29 nan nan 29 28 29 29 29 28 28 28 29 29 29 29 28 28 27 26 24 22 21 21 20 19
nan nan nan nan nan nan nan nan nan nan nan nan nan nan nan nan nan nan 31 30 30 30 30 30 30 30 30 29 29 29 30 30 30 29 28 28 26 23 22 22 21 21
nan nan nan nan nan nan nan nan nan nan nan nan nan nan nan nan nan nan nan nan 31 32 31 31 31 32 32 31 31 31 31 30 31 30 29 29 28 27 26 24 24 23
nan nan nan nan nan nan nan nan nan nan nan nan nan nan nan nan nan nan nan nan 33 33 33 33 33 33 33 33 33 33 32 32 32 31 30 29 28 28 28 25 25 25
nan nan nan nan nan nan nan nan nan nan nan nan nan nan nan nan nan nan nan nan nan 34 34 34 34 34 35 35 34 33 35 34 33 32 30 30 28 28 29 29 27 26
nan nan nan nan nan nan nan nan nan nan nan nan nan nan nan nan nan nan nan nan nan 34 34 35 35 36 32 27 29 33 32 33 33 32 32 31 31 30 29 30 30 30
nan nan nan nan nan nan nan nan nan nan nan nan nan nan nan nan nan nan nan nan nan 35 34 35 35 35 28 29 30 28 32 34 34 33 33 32 31 31 30 31 32 32
nan nan nan nan nan nan nan nan nan nan nan nan nan nan nan nan nan nan nan nan nan nan nan 34 35 32 29 30 30 30 31 33 34 33 33 32 33 32 32 33 32 33
nan nan nan nan nan nan nan nan nan nan nan nan nan nan nan nan nan nan nan nan nan nan nan 34 35 32 30 29 30 30 31 31 35 35 34 34 35 34 35 34 34 34
nan nan nan nan nan nan nan nan nan nan nan nan nan nan nan nan nan nan nan nan nan nan nan nan 34 32 30 nan nan nan nan 33 37 36 36 35 35 36 36 35 35 34
nan nan nan nan nan nan nan nan nan nan nan nan nan nan nan nan nan nan nan nan nan nan nan nan 35 30 nan nan nan nan nan 35 38 38 36 36 36 36 35 35 35 35
nan nan nan nan nan nan nan nan nan nan nan nan nan nan nan nan nan nan nan nan nan nan nan nan nan nan nan nan nan nan nan 39 39 39 37 36 36 37 38 37 36 36
nan nan nan nan nan nan nan nan nan nan nan nan nan nan nan nan nan nan nan nan nan nan nan nan nan nan nan nan 33 33 38 41 41 39 38 38 37 38 38 38 37 37
nan nan nan nan nan nan nan nan nan nan nan nan nan nan nan nan nan nan nan nan nan nan nan nan nan 36 nan nan nan nan nan 41 41 39 39 39 39 39 39 38 36 32
nan nan nan nan nan nan nan nan nan nan nan nan nan nan nan nan nan nan nan nan nan nan nan nan nan nan nan nan nan nan nan 43 41 40 39 40 41 40 40 39 38 37
nan nan nan nan nan nan nan nan nan nan nan nan nan nan nan nan nan nan nan nan nan nan nan nan nan nan nan nan nan nan nan 42 43 42 41 41 42 42 41 41 40 40
Wind_Direction
310 313 310 nan nan 323 327 nan nan nan nan nan nan nan nan nan 326 324 325 321 320 321 321 324 326 329 330 330 327 329 328 323 327 323 312 300 299 297 301 299 282 278
nan 286 295 295 297 300 nan nan nan nan nan nan nan nan nan 323 nan 314 313 313 313 312 313 313 315 317 319 319 321 325 324 325 327 319 316 320 314 311 313 307 293 280
nan nan nan nan nan nan nan nan nan nan nan nan nan nan nan 313 310 307 308 311 310 310 308 309 311 313 314 314 314 315 319 323 324 319 318 320 316 315 313 303 291 286
nan nan nan nan nan nan nan nan nan nan nan nan nan nan 306 306 303 305 nan 302 nan 307 307 305 307 309 310 310 309 310 314 318 318 315 311 312 315 314 312 303 295 287
nan nan nan nan nan nan nan nan nan nan nan nan nan nan 300 nan nan nan nan nan nan 302 301 301 302 303 304 305 305 306 308 308 309 308 307 308 308 309 308 305 301 294
nan nan nan nan nan nan nan nan nan nan nan nan nan 301 nan nan nan nan nan nan 298 298 299 299 299 298 298 299 300 303 303 304 305 306 306 307 304 306 305 305 304 300
nan nan nan nan nan nan 301 nan nan 301 302 nan 298 nan nan nan nan nan nan 299 298 298 298 298 296 296 296 297 297 298 299 301 302 305 308 305 302 297 298 301 301 300
nan nan nan nan nan nan nan nan nan nan nan nan nan nan nan nan nan nan 297 297 298 298 298 297 297 297 297 295 296 295 294 295 297 300 303 303 301 299 293 292 294 297
nan nan nan nan nan nan nan nan nan nan nan nan nan nan nan nan 298 nan nan 295 295 296 296 295 296 295 294 294 294 295 294 293 294 296 297 298 298 298 297 294 292 290
nan nan nan nan nan nan nan nan nan nan nan nan nan nan nan nan nan nan 292 292 292 291 292 291 291 291 291 292 293 293 293 293 294 295 295 295 295 294 292 292 291 286
nan nan nan nan nan nan nan nan nan nan nan 296 nan nan nan nan nan 290 nan nan 290 290 289 289 289 289 289 289 290 291 292 291 291 292 294 295 295 293 291 288 287 288
nan nan nan nan nan nan nan nan nan nan nan nan nan nan nan nan nan nan 289 289 289 289 289 289 289 289 290 289 289 288 288 288 288 288 290 292 293 292 291 288 285 285
nan nan nan nan nan nan nan nan nan nan nan nan nan nan nan nan nan nan nan nan 288 288 287 288 287 287 287 288 288 288 288 285 284 284 285 286 289 290 290 288 286 284
nan nan nan nan nan nan nan nan nan nan nan nan nan nan nan nan nan nan nan nan 287 287 287 285 285 284 285 286 287 287 287 286 284 282 280 281 283 285 285 285 285 283
nan nan nan nan nan nan nan nan nan nan nan nan nan nan nan nan nan nan nan nan nan 287 285 285 284 283 283 284 286 285 286 286 282 280 278 278 279 280 281 281 280 280
nan nan nan nan nan nan nan nan nan nan nan nan nan nan nan nan nan nan nan nan nan 284 284 283 283 283 282 280 277 279 280 279 279 277 276 277 277 278 278 279 278 277
nan nan nan nan nan nan nan nan nan nan nan nan nan nan nan nan nan nan nan nan nan 284 283 283 283 283 280 279 279 277 277 279 278 276 276 275 275 277 277 276 275 275
nan nan nan nan nan nan nan nan nan nan nan nan nan nan nan nan nan nan nan nan nan nan nan 283 283 282 280 280 279 278 278 277 276 275 274 274 275 276 276 275 274 272
nan nan nan nan nan nan nan nan nan nan nan nan nan nan nan nan nan nan nan nan nan nan nan 284 283 282 282 280 278 276 275 274 276 275 274 274 275 276 275 274 272 271
nan nan nan nan nan nan nan nan nan nan nan nan nan nan nan nan nan nan nan nan nan nan nan nan 284 284 283 nan nan nan nan 274 276 275 274 274 274 275 274 272 272 270
nan nan nan nan nan nan nan nan nan nan nan nan nan nan nan nan nan nan nan nan nan nan nan nan 284 282 nan nan nan nan nan 273 276 274 273 273 274 274 273 272 271 270
nan nan nan nan nan nan nan nan nan nan nan nan nan nan nan nan nan nan nan nan nan nan nan nan nan nan nan nan nan nan nan 275 276 275 273 273 272 273 273 272 271 270
nan nan nan nan nan nan nan nan nan nan nan nan nan nan nan nan nan nan nan nan nan nan nan nan nan nan nan nan 278 275 276 278 277 275 274 273 272 272 271 271 270 270
nan nan nan nan nan nan nan nan nan nan nan nan nan nan nan nan nan nan nan nan nan nan nan nan nan 284 nan nan nan nan nan 278 277 276 275 274 272 271 270 270 270 270
nan nan nan nan nan nan nan nan nan nan nan nan nan nan nan nan nan nan nan nan nan nan nan nan nan nan nan nan nan nan nan 279 277 276 274 274 273 271 270 269 268 267
nan nan nan nan nan nan nan nan nan nan nan nan nan nan nan nan nan nan nan nan nan nan nan nan nan nan nan nan nan nan nan 280 279 276 275 273 272 271 269 269 268 267